Flag for Moldova Weather past 2 weeks in Bălți, Moldova

Now
64 °F

Mild.


Feels Like: 64 °F
Forecast: 52 / 66 °F
Wind: 10 mph from Northwest

Location: Baltsi-Leadoveni - The North of Moldova

Current Time: Sep 30, 2014 at 8:53:43 PM

Latest Report: Sep 30, 2014 at 8:00 PM


Visibility: N/A

Pressure: 30.18 "Hg

Humidity: 60%

Dew point: 50 °F

Location of BălțiLocation

Historic Weather in Bălți — Graph

°F

Bălți temperature yesterday

Maximum temperature yesterday: 68 °F (at 3:30 PM)
Minimum temperature yesterday: 46 °F (at 7:00 AM)
Average temperature yesterday: 57 °F

Past Weeks' High & Low Weather Summary

 TemperatureHumidityPressure
High75 °F (Sep 22, 2:30 PM)100% (Sep 22, 8:00 AM)30.39 "Hg (Sep 22, 8:00 AM)
Low37 °F (Sep 25, 6:30 AM)22% (Sep 20, 4:00 PM)29.62 "Hg (Sep 22, 4:30 PM)
Average57 °F61%30.08 "Hg
* Reported Sep 15 7:00 PM — Sep 30 7:30 PM, Bălți, Weather by CustomWeather, © 2014

Note: Actual official high and low records may vary slightly from our data, if they occured in-between our weather recording intervals... More about our weather records

Advertising

Bălți weather history for previous 24 hours

 ConditionsComfort  
Time TempWeatherWind HumidityBarometerVisibility
7:30 PM
Sep 30
66 °FMild.9 mph52%30.18 "HgN/A
7:00 PM64 °FMild.9 mph56%30.18 "HgN/A
6:30 PM66 °FMild.9 mph49%30.18 "HgN/A
6:00 PM70 °FSunny.14 mph43%30.18 "Hg10 mi
5:30 PM72 °FSunny.10 mph41%30.18 "Hg10 mi
5:00 PM72 °FSunny.15 mph41%30.18 "Hg10 mi
4:30 PM72 °FSunny.14 mph41%30.18 "Hg10 mi
4:00 PM72 °FSunny.15 mph41%30.18 "Hg10 mi
3:30 PM72 °FSunny.14 mph41%30.18 "Hg10 mi
3:00 PM72 °FSunny.13 mph44%30.21 "Hg10 mi
2:30 PM70 °FPassing clouds.13 mph46%30.21 "HgN/A
2:00 PM70 °FPassing clouds.14 mph46%30.21 "HgN/A
1:30 PM70 °FPassing clouds.13 mph50%30.21 "HgN/A
1:00 PM70 °FPassing clouds.10 mph50%30.21 "HgN/A
12:30 PM70 °FSunny.10 mph50%30.24 "Hg10 mi
12:00 PM68 °FPassing clouds.13 mph49%30.24 "HgN/A
11:30 AM68 °FPassing clouds.9 mph53%30.24 "HgN/A
11:00 AM66 °FPassing clouds.8 mph52%30.24 "HgN/A
10:30 AM64 °FSunny.7 mph56%30.24 "Hg10 mi
10:00 AM63 °FPassing clouds.7 mph59%30.24 "HgN/A
9:30 AM61 °FSunny.9 mph63%30.24 "Hg10 mi
9:00 AM59 °FSunny.9 mph68%30.24 "Hg10 mi
8:30 AM55 °FSunny.12 mph72%30.24 "Hg10 mi
8:00 AM54 °FCool.12 mph72%30.24 "HgN/A
7:30 AM52 °FCool.8 mph77%30.24 "HgN/A
7:00 AM50 °FCool.9 mph76%30.24 "HgN/A
6:30 AM52 °FCool.8 mph77%30.24 "HgN/A
6:00 AM52 °FCool.6 mph72%30.24 "Hg1 mi
5:30 AM54 °FCool.7 mph72%30.24 "Hg1 mi
5:00 AM54 °FCool.7 mph67%30.24 "Hg1 mi
4:30 AM54 °FCool.7 mph67%30.24 "Hg1 mi
4:00 AM57 °FRefreshingly cool.3 mph59%30.24 "Hg3 mi
3:30 AM59 °FRefreshingly cool.3 mph55%30.24 "Hg1 mi
3:00 AM59 °FRefreshingly cool.6 mph55%30.24 "Hg1 mi
2:30 AM57 °FRefreshingly cool.7 mph59%30.24 "Hg1 mi
2:00 AM57 °FRefreshingly cool.7 mph59%30.24 "Hg1 mi
1:30 AM59 °FRefreshingly cool.6 mph55%30.27 "Hg1 mi
1:00 AM59 °FRefreshingly cool.6 mph55%30.27 "Hg1 mi
12:30 AM59 °FRefreshingly cool.6 mph55%30.27 "Hg1 mi
12:00 AM59 °FRefreshingly cool.6 mph55%30.27 "Hg4 mi
11:30 PM
Sep 29
59 °FRefreshingly cool.6 mph55%30.27 "Hg1 mi
11:00 PM59 °FRefreshingly cool.5 mph55%30.27 "Hg2 mi
10:30 PM59 °FRefreshingly cool.7 mph59%30.27 "Hg1 mi
10:00 PM59 °FRefreshingly cool.7 mph59%30.27 "Hg1 mi
9:30 PM61 °FRefreshingly cool.5 mph52%30.27 "HgN/A
9:00 PM63 °FMild.5 mph52%30.30 "HgN/A
8:30 PM63 °FMild.5 mph52%30.30 "HgN/A
8:00 PM63 °FMild.5 mph52%30.30 "HgN/A
Weather by CustomWeather, © 2014

See weather overviewHow to use our weather pages